Location: Baggettsville
(36.4767°N, 86.7303°W)
Time: 07:08:27
(UTC+00:00)

BlueWalker 3 - Pass Details

Date: 27 November 2022
Orbit: 499 x 517 km, 53.2° (Epoch: 29 January)

Event Time Altitude Azimuth Distance (km) Brightness Sun altitude
Rises 00:01:30 0° 281° (W) 2,626 6.8 -17.6°
Reaches altitude 10° 00:04:55 10° 312° (NW) 1,736 5.1 -18.3°
Maximum altitude 00:06:35 12° 338° (NNW) 1,593 4.6 -18.6°
Enters shadow 00:08:14 10° 3° (N) 1,728 4.5 -18.9°
